This is the latest recevied weather packets stored in our database for station/object HB9TJR-3. If no packets are shown the sender has not sent any weather packets the latest 10 day(s).
| Time | Temp. | Humidity | Pressure | Rain* | Wind** | Luminosity | Snow |
|---|---|---|---|---|---|---|---|
| 1778111974 | 6.67° C | 85% | 861.3 hPa | 0 mm | - | - | - |
| 1778111014 | 6.11° C | 86% | 861.3 hPa | 0 mm | - | - | - |
| 1778110054 | 6.11° C | 86% | 861.3 hPa | 0 mm | - | - | - |
| 1778109094 | 6.11° C | 85% | 861.3 hPa | 0 mm | - | - | - |
| 1778108134 | 5.56° C | 87% | 861.2 hPa | 0 mm | - | - | - |
| 1778107174 | 6.11° C | 86% | 861.3 hPa | 0 mm | - | - | - |
| 1778106214 | 6.11° C | 88% | 861.2 hPa | 0 mm | - | - | - |
| 1778105254 | 6.11° C | 88% | 861.2 hPa | 0 mm | - | - | - |
| 1778104294 | 6.11° C | 88% | 861.1 hPa | 0 mm | - | - | - |
| 1778103334 | 5.56° C | 89% | 861 hPa | 0 mm | - | - | - |
| 1778102374 | 5.56° C | 89% | 861.1 hPa | 0 mm | - | - | - |
| 1778101414 | 5° C | 91% | 861.1 hPa | 0 mm | - | - | - |
| 1778100454 | 5° C | 90% | 861 hPa | 0 mm | - | - | - |
| 1778099494 | 5° C | 90% | 861.1 hPa | 0 mm | - | - | - |
| 1778098534 | 5.56° C | 89% | 861 hPa | 0 mm | - | - | - |
| 1778097574 | 5.56° C | 90% | 860.9 hPa | 0 mm | - | - | - |
| 1778096614 | 6.11° C | 90% | 860.8 hPa | 0 mm | - | - | - |
| 1778095654 | 6.11° C | 91% | 860.5 hPa | 0 mm | - | - | - |
| 1778094695 | 6.67° C | 88% | 860.2 hPa | 0 mm | - | - | - |
| 1778093734 | 6.67° C | 86% | 860.1 hPa | 0 mm | - | - | - |
| 1778092774 | 6.67° C | 86% | 860.1 hPa | 0 mm | - | - | - |
| 1778091814 | 6.67° C | 85% | 860.1 hPa | 0 mm | - | - | - |
| 1778090854 | 6.67° C | 86% | 860 hPa | 0 mm | - | - | - |
| 1778089894 | 6.67° C | 86% | 859.8 hPa | 0 mm | - | - | - |
| 1778088934 | 6.67° C | 86% | 859.7 hPa | 0 mm | - | - | - |
* Rain latest hour (hover to see other rain measurements)
** Current wind speed in m/s (hover to see current wind gust speed)